Pleasanton, TX

1:10 AM CDT on April 21, 2018 (GMT -0500)
Pleasanton Municipal

Weather History for KPEZ - May, 2014

Change the Weather History Date:

Sunday, May 25, 2014

  Actual Average Record
Temperature  
Mean Temperature 80 °F -  
Max Temperature 89 °F 90 °F 101 °F (2011)
Min Temperature 72 °F 68 °F 59 °F (2017)
Cooling Degree Days 16    
Growing Degree Days 30 (Base 50)    
Moisture  
Dew Point 66 °F    
Average Humidity 66    
Maximum Humidity 87    
Minimum Humidity 39    
Precipitation  
Precipitation 0.00 in - - ()
Sea Level Pressure  
Sea Level Pressure 29.95 in    
Wind  
Wind Speed 10 mph (ESE)    
Max Wind Speed 20 mph    
Max Gust Speed 29 mph    
Visibility 10 miles    
Events Rain    
Averages and records for this station are not official NWS values.
T = Trace of Precipitation, MM = Missing Value Source: NWS Daily Summary

Daily Weather History Graph

Daily Weather History Graph

Search for Another Location

Airport or City:

Astronomy

May. 25, 2014 Rise Set
Actual Time 6:37 AM CDT 8:24 PM CDT
Civil Twilight 6:11 AM CDT 8:50 PM CDT
Nautical Twilight 5:39 AM CDT 9:22 PM CDT
Astronomical Twilight 5:06 AM CDT 9:56 PM CDT
Moon 4:27 AM CDT (5/25) 5:39 PM CDT (5/25)
Length of Visible Light 14h 39m
Length of Day
13h 46m
Waning Crescent, 10% of the Moon is Illuminated
May 25
Waning Crescent
May 28
New
Jun 5
First Quarter
Jun 12
Full
Jun 19
Last Quarter

Hourly Weather History & Observations

Time (CDT) Temp. Heat Index Dew Point Humidity Pressure Visibility Wind Dir Wind Speed Gust Speed Precip Events Conditions
12:15 AM 73.8 °F - 66.6 °F 78% 29.98 in 10.0 mi ESE 11.5 mph 18.4 mph N/A   Mostly Cloudy
12:35 AM 73.8 °F - 67.1 °F 80% 29.98 in 10.0 mi ESE 9.2 mph - N/A   Mostly Cloudy
12:55 AM 73.4 °F - 67.1 °F 81% 29.98 in 10.0 mi ESE 9.2 mph - N/A   Mostly Cloudy
1:15 AM 73.6 °F - 67.1 °F 80% 29.99 in 10.0 mi ESE 8.1 mph - N/A   Mostly Cloudy
1:35 AM 73.6 °F - 67.1 °F 80% 29.97 in 10.0 mi East 9.2 mph - N/A   Overcast
1:55 AM 73.4 °F - 67.1 °F 81% 29.96 in 10.0 mi ESE 9.2 mph - N/A   Mostly Cloudy
2:15 AM 73.2 °F - 67.1 °F 81% 29.97 in 10.0 mi ESE 5.8 mph - N/A   Mostly Cloudy
2:35 AM 73.0 °F - 67.1 °F 82% 29.96 in 10.0 mi ESE 6.9 mph - N/A   Mostly Cloudy
2:55 AM 73.0 °F - 67.1 °F 82% 29.95 in 10.0 mi ESE 5.8 mph - N/A   Mostly Cloudy
3:15 AM 72.9 °F - 67.1 °F 82% 29.94 in 10.0 mi ESE 6.9 mph - N/A   Mostly Cloudy
3:35 AM 73.2 °F - 66.9 °F 81% 29.95 in 10.0 mi ESE 8.1 mph 16.1 mph N/A   Scattered Clouds
3:55 AM 73.0 °F - 67.1 °F 82% 29.94 in 10.0 mi East 9.2 mph - N/A   Mostly Cloudy
4:15 AM 73.4 °F - 67.1 °F 81% 29.96 in 10.0 mi ESE 5.8 mph - N/A   Overcast
4:35 AM 73.6 °F - 66.9 °F 80% 29.96 in 10.0 mi East 11.5 mph - N/A   Overcast
4:55 AM 73.4 °F - 66.7 °F 80% 29.95 in 10.0 mi East 9.2 mph - N/A   Overcast
5:15 AM 73.4 °F - 67.1 °F 81% 29.95 in 10.0 mi East 8.1 mph - N/A   Overcast
5:35 AM 73.4 °F - 66.9 °F 80% 29.95 in 10.0 mi East 8.1 mph - N/A   Overcast
5:55 AM 73.4 °F - 67.3 °F 81% 29.95 in 10.0 mi East 5.8 mph - N/A   Overcast
6:15 AM 73.0 °F - 67.5 °F 83% 29.96 in 10.0 mi East 8.1 mph - N/A   Overcast
6:35 AM 72.9 °F - 67.6 °F 84% 29.96 in 10.0 mi East 6.9 mph - N/A   Overcast
6:55 AM 72.9 °F - 67.6 °F 84% 29.96 in 10.0 mi East 5.8 mph - N/A   Overcast
7:15 AM 72.9 °F - 68.0 °F 85% 29.96 in 10.0 mi East 8.1 mph - N/A   Overcast
7:35 AM 72.5 °F - 68.5 °F 87% 29.97 in 10.0 mi East 5.8 mph - N/A   Overcast
7:55 AM 73.0 °F - 69.1 °F 87% 29.97 in 10.0 mi East 4.6 mph - N/A Rain Light Rain
8:15 AM 73.4 °F - 69.1 °F 86% 29.98 in 10.0 mi East 6.9 mph - N/A   Overcast
8:35 AM 73.8 °F - 69.3 °F 86% 29.99 in 10.0 mi East 5.8 mph - N/A   Overcast
9:15 AM 74.3 °F - 69.8 °F 86% 30.01 in 10.0 mi ENE 5.8 mph - N/A   Overcast
9:55 AM 75.2 °F - 69.8 °F 83% 30.01 in 10.0 mi East 8.1 mph - N/A   Overcast
10:15 AM 77.0 °F - 69.8 °F 78% 30.01 in 10.0 mi East 8.1 mph - N/A   Overcast
10:35 AM 78.4 °F - 70.7 °F 77% 30.00 in 10.0 mi East 9.2 mph - N/A   Mostly Cloudy
10:55 AM 79.9 °F - 69.4 °F 70% 30.00 in 10.0 mi East 11.5 mph 17.3 mph N/A   Mostly Cloudy
11:15 AM 79.9 °F - 69.4 °F 70% 30.00 in 10.0 mi East 11.5 mph - N/A   Mostly Cloudy
11:35 AM 80.1 °F 82.8 °F 68.5 °F 68% 30.00 in 10.0 mi ESE 10.4 mph 17.3 mph N/A   Overcast
11:55 AM 79.9 °F - 68.4 °F 68% 30.00 in 10.0 mi ESE 13.8 mph 17.3 mph N/A   Overcast
12:15 PM 80.4 °F 83.1 °F 68.0 °F 66% 29.99 in 10.0 mi ESE 16.1 mph 20.7 mph N/A   Overcast
12:35 PM 82.6 °F 85.7 °F 68.5 °F 62% 29.97 in 10.0 mi ESE 11.5 mph 20.7 mph N/A   Mostly Cloudy
12:55 PM 82.9 °F 85.0 °F 66.0 °F 56% 29.97 in 10.0 mi SE 12.7 mph 25.3 mph N/A   Overcast
1:15 PM 85.1 °F 87.1 °F 65.5 °F 52% 29.96 in 10.0 mi SE 13.8 mph 21.9 mph N/A   Mostly Cloudy
1:35 PM 85.3 °F 86.8 °F 64.6 °F 50% 29.95 in 10.0 mi SE 13.8 mph 26.5 mph N/A   Mostly Cloudy
1:55 PM 85.3 °F 86.8 °F 64.9 °F 50% 29.95 in 10.0 mi SE 19.6 mph 24.2 mph N/A   Overcast
2:15 PM 86.2 °F 87.6 °F 64.4 °F 48% 29.94 in 10.0 mi SSE 15.0 mph 23.0 mph N/A   Mostly Cloudy
2:35 PM 86.0 °F 87.1 °F 63.5 °F 47% 29.93 in 10.0 mi ESE 15.0 mph 23.0 mph N/A   Overcast
2:55 PM 87.8 °F 88.5 °F 62.6 °F 43% 29.93 in 10.0 mi SE 19.6 mph 25.3 mph N/A   Overcast
3:15 PM 89.4 °F 90.2 °F 63.1 °F 41% 29.92 in 10.0 mi SSE 17.3 mph 23.0 mph N/A   Mostly Cloudy
3:35 PM 88.7 °F 89.1 °F 62.2 °F 41% 29.91 in 10.0 mi ESE 15.0 mph 23.0 mph N/A   Mostly Cloudy
3:55 PM 89.6 °F 89.8 °F 61.7 °F 39% 29.90 in 10.0 mi SE 15.0 mph 23.0 mph N/A   Overcast
4:15 PM 89.2 °F 89.3 °F 61.0 °F 39% 29.90 in 10.0 mi SE 13.8 mph 23.0 mph N/A   Mostly Cloudy
4:35 PM 88.3 °F 88.9 °F 62.8 °F 42% 29.89 in 10.0 mi ESE 17.3 mph 23.0 mph N/A   Mostly Cloudy
4:55 PM 88.3 °F 88.9 °F 62.2 °F 42% 29.89 in 10.0 mi SE 15.0 mph 26.5 mph N/A   Scattered Clouds
5:15 PM 87.3 °F 87.7 °F 62.4 °F 43% 29.88 in 10.0 mi SE 12.7 mph 24.2 mph N/A   Scattered Clouds
5:35 PM 89.1 °F 90.0 °F 63.3 °F 42% 29.87 in 10.0 mi SE 15.0 mph 24.2 mph N/A   Mostly Cloudy
5:55 PM 88.3 °F 88.9 °F 62.4 °F 42% 29.87 in 10.0 mi SE 18.4 mph 23.0 mph N/A   Scattered Clouds
6:15 PM 87.6 °F 87.9 °F 62.1 °F 42% 29.87 in 10.0 mi ESE 15.0 mph 26.5 mph N/A   Scattered Clouds
6:35 PM 87.1 °F 87.2 °F 61.7 °F 42% 29.86 in 10.0 mi East 17.3 mph 23.0 mph N/A   Scattered Clouds
6:55 PM 86.0 °F 86.1 °F 61.0 °F 43% 29.86 in 10.0 mi ESE 17.3 mph 25.3 mph N/A   Scattered Clouds
7:15 PM 84.9 °F 85.2 °F 61.7 °F 45% 29.87 in 10.0 mi ESE 13.8 mph 25.3 mph N/A   Scattered Clouds
7:35 PM 83.7 °F 84.5 °F 62.8 °F 49% 29.88 in 10.0 mi ESE 15.0 mph 21.9 mph N/A   Scattered Clouds
7:55 PM 82.8 °F 84.0 °F 63.7 °F 52% 29.89 in 10.0 mi SE 16.1 mph 21.9 mph N/A   Overcast
8:15 PM 81.5 °F 83.1 °F 64.4 °F 56% 29.90 in 10.0 mi ESE 13.8 mph 24.2 mph N/A   Scattered Clouds
8:35 PM 80.6 °F 82.2 °F 63.9 °F 57% 29.90 in 10.0 mi ESE 11.5 mph 19.6 mph N/A   Scattered Clouds
8:55 PM 79.9 °F - 63.3 °F 57% 29.92 in 10.0 mi East 11.5 mph 21.9 mph N/A   Mostly Cloudy
9:15 PM 79.2 °F - 62.1 °F 56% 29.92 in 10.0 mi ESE 13.8 mph 23.0 mph N/A   Scattered Clouds
9:35 PM 78.8 °F - 62.2 °F 57% 29.93 in 10.0 mi ESE 11.5 mph 21.9 mph N/A   Clear
9:55 PM 77.9 °F - 63.3 °F 61% 29.94 in 10.0 mi ESE 12.7 mph 20.7 mph N/A   Clear
10:15 PM 77.4 °F - 64.4 °F 64% 29.96 in 10.0 mi East 10.4 mph 17.3 mph N/A   Scattered Clouds
10:35 PM 76.6 °F - 65.5 °F 68% 29.96 in 10.0 mi East 12.7 mph 23.0 mph N/A   Scattered Clouds
10:55 PM 75.7 °F - 65.8 °F 71% 29.97 in 10.0 mi ESE 18.4 mph 28.8 mph N/A   Scattered Clouds
11:15 PM 75.2 °F - 65.8 °F 73% 29.98 in 10.0 mi East 10.4 mph 26.5 mph N/A   Scattered Clouds
11:35 PM 74.7 °F - 66.2 °F 75% 29.98 in 10.0 mi East 12.7 mph 23.0 mph N/A   Scattered Clouds
11:55 PM 74.3 °F - 66.6 °F 77% 30.00 in 10.0 mi East 9.2 mph - N/A   Mostly Cloudy